Hourly Data Report for September 07, 2017

All times are specified in Local Standard Time (LST). Add 1 hour to adjust for Daylight Saving Time where and when it is observed.

EDMUNDSTON
NEW BRUNSWICK

47°25'00.000" N
68°19'28.040" W
154.20 m
8101303
71590
ERM

Download Data

Hourly Data (September 2017)
Hourly Data Report for September 7, 2017
Temp Definition
°C
Dew Point Temp Definition
°C
Rel Hum Definition
%
Wind Dir Definition
10's deg

Wind Spd Definition
km/h
Visibility Definition
km
Stn Press Definition
kPa
Hmdx Definition


Wind Chill Definition


Weather Definition


TIME
00:00 12.9 12.1 95 29 2   99.62     LegendNANA
01:00 12.9 12.1 95   0   99.53     LegendNANA
02:00 12.9 12.1 95 25 2   99.46     LegendNANA
03:00 12.9 12.1 95   0   99.39     LegendNANA
04:00 12.9 12.1 95 29 5   99.24     LegendNANA
05:00 13.0 12.1 95 31 5   99.12     LegendNANA
06:00 13.0 12.2 95 28 7   99.02     LegendNANA
07:00 13.3 12.4 95 32 4   98.94     LegendNANA
08:00 13.5 12.7 95 28 5   98.81     LegendNANA
09:00 14.2 13.2 94 30 6   98.67     LegendNANA
10:00 14.9 13.7 93 29 4   98.56     LegendNANA
11:00 15.2 14.0 93 27 5   98.51     LegendNANA
12:00 15.5 14.0 91 29 5   98.44     LegendNANA
13:00 16.1 14.2 88 32 2   98.42     LegendNANA
14:00 16.4 14.8 90 25 5   98.44     LegendNANA
15:00 16.1 14.0 87 25 7   98.45     LegendNANA
16:00 16.0 14.1 89 29 4   98.49     LegendNANA
17:00 16.0 14.6 91 28 4   98.55     LegendNANA
18:00 15.2 13.0 87 26 8   98.63     LegendNANA
19:00 14.1 12.3 89 31 7   98.72     LegendNANA
20:00 13.7 12.6 93 9 7   98.79     LegendNANA
21:00 13.5 12.5 94 11 7   98.84     LegendNANA
22:00 13.4 12.5 94 10 2   98.86     LegendNANA
23:00 13.5 12.5 94 0 1   98.90     LegendNANA

Notes on Data Quality.

Legend

  • E = Estimated
  • M = Missing
  • NA = Not Available
  • ‡ = Partner data that is not subject to review by the National Climate Archives
Date modified: